STARLINK-5684, 55453

Orbit data source: Space-Track

STARLINK-5684, 55453 is a payload satellite owned by SpaceX/Seattle (US) in LEO that was launched on Thu, 02 Feb 2023 UTC via an FALCON 9 launch vehicle from the Air Force Eastern Test Range (AFETR). Payload-class satellites include a variety of spacecraft equipped with specific instruments for various scientific and technological missions. These include communications satellites like Starlink; space stations such as the ISS; scientific satellites like the Hubble; Earth observation satellites from companies like Planet Labs, Umbra, and HawkEye 360; GPS; miniature CubeSats for education and research; and military/defense satellites.

Loading next visibility...
Identifier
55453, 2023-015E
Orbit
LEO
Country
Flag of USUS
Related business
Manufacturer
SpaceX/Seattle
Mission
Operational Commercial Communications
Bus & Motor
STARLINK, Unknown motor
Mass
305 kg wet, ~290 kg dry
Launch date (UTC)
2023-02-02 (3 years ago)
Launch vehicle
FALCON 9
Launch site
Air Force Eastern Test Range (AFETR)
Object type
Payload
Rocket body
Debris
Shape & HBR
Box + 1 Pan, 10.1 m
Radar Cross Section
13.562 m², Large (>1 m²)

Expand to show TLE details & history
Last TLE update: 7 hours ago

TLE from 7 hours ago
0 STARLINK-5684
1 55453U 23015E   26132.83060566 -.00000741  00000-0 -17421-4 0  9994
2 55453  43.0016 326.3075 0001345 269.0084  91.0613 15.27566767180535
Epoch: 2026-05-12T19:56Z
TLE epoch observation values (Epoch: 2026-05-12T19:56:04.329Z)
Latitude
-0.00004°
Longitude
156.69007°
Altitude
482.882 km
Speed
7.626 km/s
True Right ascension
21h 45m 13s
True Declination
0° 00' 00"
Sunlit
Object was in daylight at epoch
Visualization orbit readout
Latitude
Unknown
Longitude
Unknown
Altitude
Unknown
Speed
Unknown
Apparent Right ascension
Unknown
Apparent Declination
Unknown
Sunlit
N/A
Visualization observer readout
Local Sidereal Time
11:18:38
Azimuth
Unknown
Elevation
Unknown
Doppler factor
Unknown
Orbital elements
Apogee altitude
485.957 km
Perigee altitude
484.111 km
Semi-major axis
6,863.171 km
Eccentricity
0.00013
Inclination
43.0016°
RAAN
326.3075°
Arg. of periapsis
269.0084°
True anomaly
91.07671°
Mean anomaly
91.0613°
Eccentric anomaly
91.069°
Mean motion
3.8173 °/min
Orbital period
94.31 mins
BSTAR
-0.000017421
Loading maneuver chart data...
Computing Atmospheric mass density...
Loading historical data...
Loading historical data...
Loading historical data...
Loading historical data...
Loading historical data...
Loading historical data...
Loading historical data...

Documentation

Showing up to 5 results
|